Regional Weather Roundup
Issued by NWS Charleston, WV

Home | Current Version | Previous Version | Text Only | Print | Product List | Glossary On
Versions: 1 2 3 4 5 6 7 8 9 10 11 12 13 14 15 16 17 18 19 20 21 22 23 24 25 26 27 28 29 30 31 32 33 34 35 36 37 38 39 40 41 42 43 44 45 46 47 48 49 50
000
ASUS41 KRLX 061110
RWRRLX
West Virginia Regional Weather Roundup
National Weather Service Charleston WV
700 AM EDT FRI MAY 06 2016

Note: "fair" indicates few or no clouds below 12,000 feet with no
significant weather and/or obstructions to visibility.

WVZ003-061200-
Northern Panhandle of West Virginia

CITY           SKY/WX    TMP DP  RH WIND       PRES   REMARKS
WHEELING       CLOUDY    49  42  77 N9        29.81R
$$

WVZ009-061200-
Northwest West Virginia

CITY           SKY/WX    TMP DP  RH WIND       PRES   REMARKS
PARKERSBURG      N/A     47  43  86 N5        29.86R
$$

WVZ006-061200-
Western West Virginia

CITY           SKY/WX    TMP DP  RH WIND       PRES   REMARKS
HUNTINGTON     CLOUDY    50  42  74 NW3       29.87R
$$

WVZ015-061200-
West Central West Virginia

CITY           SKY/WX    TMP DP  RH WIND       PRES   REMARKS
CHARLESTON     MOCLDY    48  45  89 W3        29.84R
$$

WVZ022-031-061200-
North Central West Virginia

CITY           SKY/WX    TMP DP  RH WIND       PRES   REMARKS
CLARKSBURG     LGT RAIN  47  44  90 W3        29.79R
MORGANTOWN     CLOUDY    49  44  83 CALM      29.80R
$$

WVZ025-035-042-045-061200-
Southern West Virginia

CITY           SKY/WX    TMP DP  RH WIND       PRES   REMARKS
BECKLEY        CLOUDY    45  43  93 NW13      29.80R
LOGAN          NOT AVBL
BLUEFIELD      CLOUDY    43  42  97 NW8       29.81R FOG
LEWISBURG      CLOUDY    47  41  80 CALM      29.76R
$$

WVZ047-061200-
Northern Mountains of West Virginia

CITY           SKY/WX    TMP DP  RH WIND       PRES   REMARKS
ELKINS         LGT RAIN  47  44  90 NW5       29.77R
$$

WVZ052-061200-
Eastern Panhandle of West Virginia

CITY           SKY/WX    TMP DP  RH WIND       PRES   REMARKS
MARTINSBURG    CLOUDY    52  48  86 N9        29.70R
PETERSBURG     CLOUDY    51  50  96 CALM      29.75R
$$



USA.gov is the U.S. government's official web portal to all federal, state and local government web resources and services.